This demonstration page uses our WeatherBlox Daily Observations layout. Learn more.

Left ArrowRight Arrow

38.20091, -84.87328

Hourly Observations for September 11, 2021

Temp ( °F °C ) Dew Point ( °F °C ) Humidity (%) Winds ( mph kmh ) Pressure ( in mb ) Visibility ( mi km ) Precip ( " mm )
12:53 am 00:53 Clear 59 15 57 13.9 93 93 Calm 30.12 1020 10 16 0.00 0.00
1:53 am 01:53 Clear 58 14.4 56 13.3 93 93 Calm 30.13 1020 10 16 0.00 0.00
2:53 am 02:53 Clear 58 14.4 56 13.3 93 93 Calm 30.11 1020 10 16 0.00 0.00
3:53 am 03:53 Clear 56 13.3 55 12.8 97 97 Calm 30.11 1020 10 16 0.00 0.00
4:53 am 04:53 Clear 56 13.3 54 12.2 93 93 Calm 30.11 1020 10 16 0.00 0.00
5:53 am 05:53 Clear 56 13.3 54 12.2 93 93 Calm 30.14 1021 10 16 0.00 0.00
6:53 am 06:53 Clear 56 13.3 54 12.2 93 93 Calm 30.15 1021 9 14 0.00 0.00
7:53 am 07:53 Sunny 59 15 57 13.9 93 93 Calm 30.16 1022 10 16 0.00 0.00
8:53 am 08:53 Sunny 63 17.2 59 15 87 87 VRB 3 6 30.17 1022 10 16 0.00 0.00
9:53 am 09:53 Mostly Sunny 68 20 60 15.6 76 76 S 7 11 30.17 1022 10 16 0.00 0.00
10:53 am 10:53 Cloudy 73 22.8 60 15.6 64 64 S 8 13 30.18 1022 10 16 0.00 0.00
11:53 am 11:53 Sunny 77 25 60 15.6 56 56 SSW 9 15 30.17 1022 10 16 0.00 0.00
12:53 pm 12:53 Sunny 79 26.1 59 15 50 50 SSW 13 20 30.15 1021 10 16 0.00 0.00
1:53 pm 13:53 Sunny 80 26.7 60 15.6 51 51 SSW 17 28 30.14 1021 10 16 0.00 0.00
2:53 pm 14:53 Sunny 82 27.8 60 15.6 47 47 SSW 13 20 30.12 1020 10 16 0.00 0.00
3:53 pm 15:53 Sunny 82 27.8 61 16.1 49 49 SSW 16 26 30.10 1019 10 16 0.00 0.00
4:53 pm 16:53 Sunny 81 27.2 62 16.7 53 53 SSW 14 22 30.09 1019 10 16 0.00 0.00
5:53 pm 17:53 Sunny 80 26.7 62 16.7 54 54 SSW 13 20 30.08 1019 10 16 0.00 0.00
6:53 pm 18:53 Sunny 78 25.6 62 16.7 58 58 SSW 9 15 30.09 1019 10 16 0.00 0.00
7:53 pm 19:53 Sunny 75 23.9 63 17.2 66 66 S 8 13 30.09 1019 10 16 0.00 0.00
8:53 pm 20:53 Clear 73 22.8 63 17.2 71 71 S 8 13 30.10 1019 10 16 0.00 0.00
9:53 pm 21:53 Clear 73 22.8 62 16.7 69 69 S 10 17 30.11 1020 10 16 0.00 0.00
10:53 pm 22:53 Clear 71 21.7 62 16.7 73 73 SSW 9 15 30.12 1020 10 16 0.00 0.00
11:53 pm 23:53 Clear 70 21.1 62 16.7 76 76 SSW 8 13 30.12 1020 10 16 0.00 0.00

Powered by AerisWeather